#timestamp,LO_Frequency,Hit,StdDev 
1652230815.2,286046998.3,N
1652230835.1,286046998.4,N
1652230836.0,286046998.4,N
1652230855.8,286046999.6,N
1652230875.6,286046997.1,N
1652230895.5,286046998.0,N
1652230915.3,286046995.0,Y
1652230935.1,286046997.7,P
1652230955.9,286046996.5,P
1652230975.7,286046997.4,P
1652230995.6,286046997.3,Y
1652231015.4,286047000.1,P
1652231035.2,286047000.5,N
1652231055.1,286046999.9,N
1652231056.0,286046999.9,N
1652231075.8,286046999.7,N
1652231095.7,286046998.5,N
1652231115.5,286046998.2,N
1652231135.3,286046998.8,N
1652231155.2,286046998.8,N
1652231175.9,286046998.3,N
1652231195.7,286046998.1,N
1652231215.6,286046998.4,N
1652231235.4,286046998.2,N
1652231255.3,286046998.6,N
1652231275.1,286047000.7,N
1652231276.0,286047000.7,N
1652231295.8,286046999.0,N
1652231315.7,286046999.3,N
1652231335.5,286046999.6,N
1652231355.3,286046998.3,N
1652231375.2,286046999.3,N
1652231395.0,286046998.3,N
1652231395.9,286046998.3,N
1652231415.8,286046998.4,N
1652231435.6,286046998.5,N
1652231455.4,286047001.2,N
1652231475.3,286046999.5,N
1652231495.1,286046996.9,Y
1652231515.8,286046996.6,P
1652231535.7,286046997.4,N
1652231555.5,286046997.5,N
1652231575.4,286046995.1,Y
1652231595.2,286046999.0,P
1652231615.0,286046999.1,N
1652231615.9,286046999.1,N
1652231635.8,286046999.5,N
1652231655.6,286046998.4,N
1652231675.5,286046998.4,N
1652231695.3,286046998.1,Y
1652231715.1,286047000.5,P
1652231735.9,286047000.1,N
1652231755.7,286047000.3,N
1652231775.5,286047001.1,N
1652231795.4,286047001.1,N
1652231815.2,286046998.4,N
1652231835.1,286046998.1,N
1652231836.0,286046998.1,N
1652231855.8,286046998.4,N
1652231875.6,286047001.2,N
1652231895.5,286047000.7,N
1652231915.3,286047000.8,N
1652231935.1,286047000.8,N
1652231955.9,286046998.6,N
1652231975.7,286046998.6,N
1652231995.6,286046998.7,N
1652232015.4,286047001.2,N
1652232035.2,286047001.2,N
1652232055.1,286046998.5,N
1652232056.0,286046998.5,N
1652232075.8,286046998.7,N
1652232095.6,286046998.4,N
1652232115.5,286047001.1,N
1652232135.3,286046998.5,N
1652232155.2,286047001.0,N
1652232175.9,286046998.9,N
1652232195.7,286046996.5,N
1652232215.6,286046999.2,N
1652232235.4,286046999.6,N
1652232255.2,286046997.7,N
1652232275.1,286046997.8,N
1652232276.0,286046997.8,N
1652232295.8,286046999.3,N
1652232315.7,286046999.4,N
1652232335.5,286046998.7,N
1652232355.3,286046999.3,N
1652232375.2,286046999.0,N
1652232395.0,286046998.8,N
1652232395.9,286046998.8,N
1652232415.7,286046998.7,N
1652232435.6,286046998.7,N
1652232455.4,286046998.8,N
1652232475.3,286046998.3,N
1652232495.1,286046998.9,N
1652232496.0,286046998.9,N
1652232515.8,286046999.0,N
1652232535.7,286046999.2,N
1652232555.5,286046996.6,Y
1652232575.4,286046998.9,P
1652232595.2,286046999.6,P
1652232615.0,286046997.8,P
1652232615.9,286046997.8,Y
1652232635.8,286046998.5,P
1652232655.6,286046998.1,P
1652232675.4,286046999.9,N
1652232695.3,286047000.0,N
1652232715.1,286046999.9,N
1652232735.9,286046999.9,N
1652232755.7,286046998.7,N
1652232775.5,286047000.5,N
1652232795.4,286047001.1,N
1652232815.2,286047000.6,N
1652232835.1,286047000.6,N
1652232836.0,286047000.6,N
1652232855.8,286046998.5,N
1652232875.6,286046998.5,N
1652232895.5,286046999.2,N
1652232915.3,286046996.6,Y
1652232935.2,286046997.3,P
1652232955.9,286046995.1,P
1652232975.7,286046996.5,N
1652232995.6,286046998.9,N
1652233015.4,286047000.8,N
1652233035.2,286047000.1,N
1652233055.1,286047002.6,N
1652233056.0,286047002.6,N
1652233075.8,286047001.6,N
1652233095.7,286047001.8,N
1652233115.5,286047001.3,N
1652233135.3,286047001.4,N
1652233155.2,286047004.4,N
1652233175.0,286047003.5,N
1652233175.9,286047003.5,N
1652233195.7,286047003.2,N
1652233215.6,286047004.2,N
1652233235.4,286047004.3,N
1652233255.3,286047004.0,N
1652233275.1,286047003.3,N
1652233276.0,286047003.3,N
1652233295.8,286047003.0,N
1652233315.7,286047005.5,N
1652233335.5,286047006.0,N
1652233355.3,286047003.1,N
1652233375.2,286047003.4,N
1652233395.0,286047003.8,N
1652233395.9,286047003.8,N
1652233415.8,286047003.3,N
1652233435.6,286047005.3,N
1652233455.4,286047004.8,N
1652233475.3,286047004.9,N
1652233495.1,286047005.3,N
1652233515.9,286047005.1,Y
1652233535.7,286047001.5,P
1652233555.5,286047001.6,N
1652233575.4,286047001.6,N
1652233595.2,286047004.0,Y
1652233615.1,286047000.9,P
1652233616.0,286047000.9,N
1652233635.8,286046999.2,N
1652233655.7,286046998.9,N
1652233675.5,286046998.6,N
1652233695.3,286047000.9,N
1652233715.2,286047000.9,N
1652233735.0,286046999.9,N
1652233735.9,286046999.9,N
1652233755.8,286047001.0,N
1652233775.6,286046998.5,N
1652233795.4,286046998.5,N
1652233815.3,286047000.9,N
1652233835.1,286047000.9,N
1652233855.8,286047001.1,N
1652233875.7,286047000.8,N
1652233895.5,286047000.5,N
1652233915.4,286047000.7,N
1652233935.2,286047002.8,N
1652233955.0,286047004.0,Y
1652233955.9,286047004.0,P
1652233975.8,286047001.8,N
1652233995.6,286047001.7,N
1652234015.5,286047004.1,Y
1652234035.3,286047002.5,P
1652234055.1,286047002.3,P
1652234075.9,286047002.5,P
1652234095.7,286047001.8,Y
1652234115.6,286047000.8,P
1652234135.4,286047001.1,N
1652234155.2,286046998.7,N
1652234175.1,286047001.1,N
1652234176.0,286047011.9,Y
1652234195.8,286046998.3,P
1652234215.6,286046997.0,N
1652234235.5,286046996.7,N
1652234255.3,286046996.8,N
1652234275.2,286046997.0,N
1652234295.9,286046999.1,N
1652234315.7,286046999.5,N
1652234335.6,286046999.6,N
1652234355.4,286046997.0,N
1652234375.3,286046998.4,N
1652234395.1,286046999.6,N
1652234396.0,286046999.6,N
